#timestamp,LO_Frequency,Hit,StdDev 
1604109615.7,286047010.0,Y
1604109635.6,286047002.0,P
1604109655.4,286047001.9,N
1604109675.2,286047001.2,N
1604109695.1,286046998.8,N
1604109696.0,286046998.8,N
1604109715.8,286046997.2,N
1604109735.7,286046998.5,N
1604109755.5,286046999.3,N
1604109775.3,286046997.2,N
1604109795.2,286047001.3,N
1604109815.9,286046998.4,N
1604109835.7,286046994.4,N
1604109855.6,286046994.8,N
1604109875.4,286046993.4,N
1604109895.2,286046993.6,N
1604109915.1,286046993.5,N
1604109916.0,286046993.5,N
1604109935.8,286046999.6,N
1604109955.7,286046997.3,N
1604109975.5,286046997.6,N
1604109995.3,286046999.8,N
1604110015.2,286046998.5,N
1604110035.0,286046995.2,N
1604110035.9,286046995.2,N
1604110055.8,286046992.5,N
1604110075.6,286046993.0,N
1604110095.4,286046998.1,N
1604110115.3,286047001.2,N
1604110135.1,286047001.6,N
1604110155.8,286046999.9,N
1604110175.7,286046998.5,N
1604110195.5,286046997.4,N
1604110215.4,286046996.6,N
1604110235.2,286046997.2,N
1604110255.0,286046995.1,N
1604110255.9,286046995.1,N
1604110275.8,286046999.3,N
1604110295.6,286046999.2,N
1604110315.5,286046999.5,N
1604110335.3,286047001.0,N
1604110355.1,286047000.0,N
1604110375.9,286047002.3,N
1604110395.7,286047000.5,N
1604110415.5,286046999.4,N
1604110435.4,286047001.1,N
1604110455.2,286046999.3,N
1604110475.1,286046998.4,N
1604110476.0,286046998.4,N
1604110495.8,286047000.1,N
1604110515.6,286047001.0,N
1604110535.5,286046997.6,N
1604110555.3,286046997.1,N
1604110575.1,286047000.9,N
1604110595.9,286046998.8,N
1604110615.7,286047002.3,N
1604110635.6,286047003.4,N
1604110655.4,286047002.4,N
1604110675.2,286047000.6,N
1604110695.1,286047002.2,N
1604110696.0,286047002.2,N
1604110715.8,286047002.9,N
1604110735.7,286047003.0,N
1604110755.5,286047005.0,N
1604110775.3,286047003.0,N
1604110795.2,286047004.1,N
1604110815.0,286047003.5,N
1604110815.9,286047003.5,N
1604110835.8,286047004.4,N
1604110855.6,286047000.5,N
1604110875.4,286046999.8,N
1604110895.3,286046996.6,N
1604110915.1,286046997.4,N
1604110935.9,286047002.3,N
1604110955.7,286047002.1,N
1604110975.5,286046999.8,N
1604110995.4,286046999.7,N
1604111015.2,286047001.5,N
1604111035.0,286047000.0,N
1604111035.9,286047000.0,N
1604111055.8,286046998.3,N
1604111075.6,286047000.0,N
1604111095.5,286047001.1,N
1604111115.3,286046998.8,N
1604111135.1,286046998.1,N
1604111155.9,286047000.7,N
1604111175.7,286046998.2,N
1604111195.5,286047002.8,N
1604111215.4,286047001.4,N
1604111235.2,286047004.9,N
1604111255.1,286047001.7,N
1604111256.0,286047001.7,N
1604111275.8,286046999.8,N
1604111295.6,286047004.8,N
1604111315.5,286047004.9,N
1604111335.3,286047003.3,N
1604111355.1,286047005.9,N
1604111375.9,286047004.2,N
1604111395.7,286047001.8,N
1604111415.6,286047000.2,N
1604111435.4,286047001.9,N
1604111455.2,286047000.6,N
1604111475.1,286047000.9,N
1604111476.0,286047000.9,N
1604111495.8,286046999.8,N
1604111515.6,286047002.1,N
1604111535.5,286047002.4,N
1604111555.3,286046999.7,N
1604111575.2,286047000.6,N
1604111595.9,286047000.1,N
1604111615.7,286047000.2,N
1604111635.6,286047000.2,N
1604111655.4,286046999.1,N
1604111675.2,286046996.8,N
1604111695.1,286046995.3,N
1604111696.0,286046995.3,N
1604111715.8,286046997.7,N
1604111735.7,286046997.6,N
1604111755.5,286046995.9,N
1604111775.3,286046995.0,N
1604111795.2,286046995.7,N
1604111815.0,286046997.7,N
1604111815.9,286046997.7,N
1604111835.8,286046995.2,N
1604111855.6,286046995.9,N
1604111875.4,286046996.8,N
1604111895.3,286047001.6,N
1604111915.1,286047004.2,N
1604111935.8,286047004.2,N
1604111955.7,286046999.7,N
1604111975.5,286047003.5,N
1604111995.3,286047003.3,N
1604112015.2,286047000.6,N
1604112035.0,286047000.0,N
1604112035.9,286047000.0,N
1604112055.8,286047004.0,N
1604112075.6,286046998.2,N
1604112095.4,286047002.5,N
1604112115.3,286047002.2,N
1604112135.1,286047000.7,N
1604112155.8,286046994.3,N
1604112175.7,286046994.4,N
1604112195.5,286046997.5,N
1604112215.4,286047001.2,N
1604112235.2,286047000.6,N
1604112255.0,286046999.4,N
1604112255.9,286046999.4,N
1604112275.8,286046994.9,N
1604112295.6,286046993.5,N
1604112315.5,286046996.2,N
1604112335.3,286046995.2,N
1604112355.1,286046995.2,N
1604112375.9,286046996.2,N
1604112395.7,286046999.3,N
1604112415.5,286046999.8,N
1604112435.4,286046999.1,N
1604112455.2,286046999.7,N
1604112475.1,286047001.0,N
1604112476.0,286047001.0,N
1604112495.8,286046995.2,N
1604112515.7,286046992.2,N
1604112535.5,286046990.9,N
1604112555.3,286046994.1,N
1604112575.2,286046996.3,N
1604112595.0,286046994.7,N
1604112595.9,286046994.7,N
1604112615.8,286046993.6,N
1604112635.6,286046995.3,N
1604112655.4,286046997.4,N
1604112675.3,286046994.5,N
1604112695.1,286046990.8,Y
1604112715.8,286046995.0,P
1604112735.7,286047000.6,N
1604112755.5,286047000.1,N
1604112775.4,286047002.4,N
1604112795.2,286046998.1,N
1604112815.0,286047002.3,N
1604112815.9,286047002.3,N
1604112835.8,286047001.5,N
1604112855.6,286047002.7,N
1604112875.5,286047001.0,N
1604112895.3,286046999.0,N
1604112915.1,286046996.8,N
1604112935.9,286046995.6,N
1604112955.7,286046994.9,N
1604112975.5,286046994.9,N
1604112995.4,286046997.5,N
1604113015.2,286046997.4,N
1604113035.1,286046998.5,N
1604113036.0,286046998.5,N
1604113055.8,286046998.9,N
1604113075.6,286046999.1,N
1604113095.5,286046995.2,N
1604113115.3,286046995.4,N
1604113135.1,286046995.4,N
1604113155.9,286046992.5,N
1604113175.7,286046991.7,N
1604113195.6,286046992.6,N
